M I D A S
Marine Information and Data Acquisition System
Tripno 1270 of the Zeeleeuw from 2007-05-09 11:15:16 to 2007-05-09 14:30:53
Back to CruiseResearch ActivitiesStationsMapUnderway DataData graphs

EquipmentUnitsComments
TimeDGPSUTC
LatitudeDGPSDM.mWGS84
LongitudeDGPSDM.mWGS84
SpeedMeteo Stationm/sRelative wind speed
DirectionMeteo StationdegRelative wind direction
TemperatureMeteo Stationdeg CelciusAir temperature
PressureMeteo StationPaAtmospheric pressure
HumidityMeteo Station%Relative humidity
Missing or incorrect values are displayed as -999
Metereological data collected by the RV Zeeleeuw from 2007-05-09 11:14:07 to 2007-05-09 14:40:04
                                                                                    Next 1000 lines
Time Latitude Longitude Speed Direction Temperature Pressure Humidity
2007-05-09 11:14:17 51°13.6 2°56.1 -999 -999 -999 -999 -999
2007-05-09 11:14:22 51°13.6 2°56.1 -999 -999 -999 -999 -999
2007-05-09 11:14:27 51°13.6 2°56.099 -999 -999 -999 -999 -999
2007-05-09 11:14:32 51°13.6 2°56.099 -999 -999 -999 -999 -999
2007-05-09 11:14:37 51°13.6 2°56.097 -999 -999 -999 -999 -999
2007-05-09 11:14:42 51°13.6 2°56.096 -999 -999 -999 -999 -999
2007-05-09 11:14:46 51°13.601 2°56.094 -999 -999 -999 -999 -999
2007-05-09 11:14:52 51°13.601 2°56.091 -999 -999 -999 -999 -999
2007-05-09 11:14:57 51°13.602 2°56.088 -999 -999 -999 -999 -999
2007-05-09 11:15:02 51°13.603 2°56.084 -999 -999 -999 -999 -999
2007-05-09 11:15:07 51°13.604 2°56.08 -999 -999 -999 -999 -999
2007-05-09 11:15:12 51°13.605 2°56.075 -999 -999 -999 -999 -999
2007-05-09 11:15:16 51°13.607 2°56.071 -999 -999 -999 -999 -999
2007-05-09 11:15:22 51°13.608 2°56.065 -999 -999 -999 -999 -999
2007-05-09 11:15:27 51°13.61 2°56.06 -999 -999 -999 -999 -999
2007-05-09 11:15:32 51°13.611 2°56.054 -999 -999 -999 -999 -999
2007-05-09 11:15:36 51°13.613 2°56.049 -999 -999 -999 -999 -999
2007-05-09 11:15:42 51°13.615 2°56.041 -999 -999 -999 -999 -999
2007-05-09 11:15:47 51°13.617 2°56.034 -999 -999 -999 -999 -999
2007-05-09 11:15:52 51°13.619 2°56.027 -999 -999 -999 -999 -999
2007-05-09 11:15:56 51°13.62 2°56.021 -999 -999 -999 -999 -999
2007-05-09 11:16:02 51°13.623 2°56.011 -999 -999 -999 -999 -999
2007-05-09 11:16:07 51°13.625 2°56.003 -999 -999 -999 -999 -999
2007-05-09 11:16:12 51°13.627 2°55.995 -999 -999 -999 -999 -999
2007-05-09 11:16:16 51°13.63 2°55.988 -999 -999 -999 -999 -999
2007-05-09 11:16:21 51°13.633 2°55.979 -999 -999 -999 -999 -999
2007-05-09 11:16:26 51°13.636 2°55.97 -999 -999 -999 -999 -999
2007-05-09 11:16:32 51°13.64 2°55.958 -999 -999 -999 -999 -999
2007-05-09 11:16:37 51°13.643 2°55.949 -999 -999 -999 -999 -999
2007-05-09 11:16:42 51°13.647 2°55.939 -999 -999 -999 -999 -999
2007-05-09 11:16:47 51°13.65 2°55.929 -999 -999 -999 -999 -999
2007-05-09 11:16:52 51°13.654 2°55.92 -999 -999 -999 -999 -999
2007-05-09 11:16:57 51°13.658 2°55.91 -999 -999 -999 -999 -999
2007-05-09 11:17:02 51°13.662 2°55.9 -999 -999 -999 -999 -999
2007-05-09 11:17:07 51°13.665 2°55.889 -999 -999 -999 -999 -999
2007-05-09 11:17:12 51°13.669 2°55.88 -999 -999 -999 -999 -999
2007-05-09 11:17:17 51°13.672 2°55.87 -999 -999 -999 -999 -999
2007-05-09 11:17:22 51°13.675 2°55.861 -999 -999 -999 -999 -999
2007-05-09 11:17:27 51°13.678 2°55.852 -999 -999 -999 -999 -999
2007-05-09 11:17:32 51°13.681 2°55.843 -999 -999 -999 -999 -999
2007-05-09 11:17:37 51°13.683 2°55.835 -999 -999 -999 -999 -999
2007-05-09 11:17:42 51°13.685 2°55.827 -999 -999 -999 -999 -999
2007-05-09 11:17:47 51°13.687 2°55.819 -999 -999 -999 -999 -999
2007-05-09 11:17:52 51°13.689 2°55.812 -999 -999 -999 -999 -999
2007-05-09 11:17:56 51°13.69 2°55.806 -999 -999 -999 -999 -999
2007-05-09 11:18:01 51°13.691 2°55.799 -999 -999 -999 -999 -999
2007-05-09 11:18:06 51°13.692 2°55.792 -999 -999 -999 -999 -999
2007-05-09 11:18:12 51°13.694 2°55.784 -999 -999 -999 -999 -999
2007-05-09 11:18:16 51°13.694 2°55.779 -999 -999 -999 -999 -999
2007-05-09 11:18:21 51°13.695 2°55.773 -999 -999 -999 -999 -999
2007-05-09 11:18:26 51°13.696 2°55.768 -999 -999 -999 -999 -999
2007-05-09 11:18:32 51°13.696 2°55.762 -999 -999 -999 -999 -999
2007-05-09 11:18:37 51°13.696 2°55.757 -999 -999 -999 -999 -999
2007-05-09 11:18:41 51°13.696 2°55.753 -999 -999 -999 -999 -999
2007-05-09 11:18:46 51°13.696 2°55.749 -999 -999 -999 -999 -999
2007-05-09 11:18:52 51°13.697 2°55.744 -999 -999 -999 -999 -999
2007-05-09 11:18:57 51°13.697 2°55.741 -999 -999 -999 -999 -999
2007-05-09 11:19:01 51°13.697 2°55.74 -999 -999 -999 -999 -999
2007-05-09 11:19:06 51°13.697 2°55.738 -999 -999 -999 -999 -999
2007-05-09 11:19:12 51°13.698 2°55.738 -999 -999 -999 -999 -999
2007-05-09 11:19:16 51°13.698 2°55.738 -999 -999 -999 -999 -999
2007-05-09 11:19:21 51°13.698 2°55.738 -999 -999 -999 -999 -999
2007-05-09 11:19:26 51°13.699 2°55.738 -999 -999 -999 -999 -999
2007-05-09 11:19:32 51°13.7 2°55.739 -999 -999 -999 -999 -999
2007-05-09 11:19:36 51°13.701 2°55.739 -999 -999 -999 -999 -999
2007-05-09 11:19:41 51°13.701 2°55.74 -999 -999 -999 -999 -999
2007-05-09 11:19:46 51°13.703 2°55.741 -999 -999 -999 -999 -999
2007-05-09 11:19:52 51°13.705 2°55.743 -999 -999 -999 -999 -999
2007-05-09 11:19:56 51°13.706 2°55.744 -999 -999 -999 -999 -999
2007-05-09 11:20:01 51°13.709 2°55.745 -999 -999 -999 -999 -999
2007-05-09 11:20:07 51°13.713 2°55.746 -999 -999 -999 -999 -999
2007-05-09 11:20:12 51°13.716 2°55.746 -999 -999 -999 -999 -999
2007-05-09 11:20:17 51°13.72 2°55.746 -999 -999 -999 -999 -999
2007-05-09 11:20:21 51°13.724 2°55.745 -999 -999 -999 -999 -999
2007-05-09 11:20:26 51°13.728 2°55.744 -999 -999 -999 -999 -999
2007-05-09 11:20:32 51°13.734 2°55.741 -999 -999 -999 -999 -999
2007-05-09 11:20:37 51°13.737 2°55.737 -999 -999 -999 -999 -999
2007-05-09 11:20:41 51°13.741 2°55.734 -999 -999 -999 -999 -999
2007-05-09 11:20:46 51°13.745 2°55.73 -999 -999 -999 -999 -999
2007-05-09 11:20:52 51°13.751 2°55.724 -999 -999 -999 -999 -999
2007-05-09 11:20:57 51°13.756 2°55.718 -999 -999 -999 -999 -999
2007-05-09 11:21:01 51°13.76 2°55.713 -999 -999 -999 -999 -999
2007-05-09 11:21:06 51°13.766 2°55.707 -999 -999 -999 -999 -999
2007-05-09 11:21:11 51°13.772 2°55.7 -999 -999 -999 -999 -999
2007-05-09 11:21:17 51°13.78 2°55.692 -999 -999 -999 -999 -999
2007-05-09 11:21:22 51°13.787 2°55.685 -999 -999 -999 -999 -999
2007-05-09 11:21:26 51°13.792 2°55.68 -999 -999 -999 -999 -999
2007-05-09 11:21:32 51°13.801 2°55.672 -999 -999 -999 -999 -999
2007-05-09 11:21:36 51°13.807 2°55.667 -999 -999 -999 -999 -999
2007-05-09 11:21:42 51°13.817 2°55.658 -999 -999 -999 -999 -999
2007-05-09 11:21:46 51°13.823 2°55.653 -999 -999 -999 -999 -999
2007-05-09 11:21:52 51°13.833 2°55.644 -999 -999 -999 -999 -999
2007-05-09 11:21:56 51°13.84 2°55.638 -999 -999 -999 -999 -999
2007-05-09 11:22:02 51°13.851 2°55.63 -999 -999 -999 -999 -999
2007-05-09 11:22:07 51°13.859 2°55.622 -999 -999 -999 -999 -999
2007-05-09 11:22:12 51°13.869 2°55.615 -999 -999 -999 -999 -999
2007-05-09 11:22:16 51°13.876 2°55.609 -999 -999 -999 -999 -999
2007-05-09 11:22:21 51°13.886 2°55.602 -999 -999 -999 -999 -999
2007-05-09 11:22:27 51°13.898 2°55.594 -999 -999 -999 -999 -999
2007-05-09 11:22:32 51°13.909 2°55.586 -999 -999 -999 -999 -999
2007-05-09 11:22:36 51°13.917 2°55.58 -999 -999 -999 -999 -999
2007-05-09 11:22:41 51°13.928 2°55.572 -999 -999 -999 -999 -999
2007-05-09 11:22:46 51°13.939 2°55.565 -999 -999 -999 -999 -999
2007-05-09 11:22:52 51°13.952 2°55.556 -999 -999 -999 -999 -999
2007-05-09 11:22:57 51°13.963 2°55.549 -999 -999 -999 -999 -999
2007-05-09 11:23:01 51°13.972 2°55.543 -999 -999 -999 -999 -999
2007-05-09 11:23:06 51°13.983 2°55.535 -999 -999 -999 -999 -999
2007-05-09 11:23:12 51°13.997 2°55.526 -999 -999 -999 -999 -999
2007-05-09 11:23:16 51°14.006 2°55.52 -999 -999 -999 -999 -999
2007-05-09 11:23:21 51°14.017 2°55.512 -999 -999 -999 -999 -999
2007-05-09 11:23:26 51°14.029 2°55.505 -999 -999 -999 -999 -999
2007-05-09 11:23:31 51°14.041 2°55.497 -999 -999 -999 -999 -999
2007-05-09 11:23:36 51°14.052 2°55.489 -999 -999 -999 -999 -999
2007-05-09 11:23:41 51°14.064 2°55.481 -999 -999 -999 -999 -999
2007-05-09 11:23:46 51°14.075 2°55.472 -999 -999 -999 -999 -999
2007-05-09 11:23:52 51°14.089 2°55.462 -999 -999 -999 -999 -999
2007-05-09 11:23:56 51°14.098 2°55.454 -999 -999 -999 -999 -999
2007-05-09 11:24:02 51°14.112 2°55.444 -999 -999 -999 -999 -999
2007-05-09 11:24:07 51°14.123 2°55.435 -999 -999 -999 -999 -999
2007-05-09 11:24:12 51°14.134 2°55.426 -999 -999 -999 -999 -999
2007-05-09 11:24:16 51°14.144 2°55.419 -999 -999 -999 -999 -999
2007-05-09 11:24:22 51°14.157 2°55.407 -999 -999 -999 -999 -999
2007-05-09 11:24:27 51°14.169 2°55.397 -999 -999 -999 -999 -999
2007-05-09 11:24:32 51°14.181 2°55.386 -999 -999 -999 -999 -999
2007-05-09 11:24:36 51°14.191 2°55.378 -999 -999 -999 -999 -999
2007-05-09 11:24:41 51°14.202 2°55.366 -999 -999 -999 -999 -999
2007-05-09 11:24:47 51°14.216 2°55.35 -999 -999 -999 -999 -999
2007-05-09 11:24:52 51°14.227 2°55.336 -999 -999 -999 -999 -999
2007-05-09 11:24:57 51°14.238 2°55.321 -999 -999 -999 -999 -999
2007-05-09 11:25:01 51°14.246 2°55.309 -999 -999 -999 -999 -999
2007-05-09 11:25:06 51°14.256 2°55.293 -999 -999 -999 -999 -999
2007-05-09 11:25:12 51°14.268 2°55.273 -999 -999 -999 -999 -999
2007-05-09 11:25:17 51°14.278 2°55.257 -999 -999 -999 -999 -999
2007-05-09 11:25:21 51°14.286 2°55.242 -999 -999 -999 -999 -999
2007-05-09 11:25:26 51°14.295 2°55.224 -999 -999 -999 -999 -999
2007-05-09 11:25:32 51°14.307 2°55.202 -999 -999 -999 -999 -999
2007-05-09 11:25:37 51°14.316 2°55.182 -999 -999 -999 -999 -999
2007-05-09 11:25:42 51°14.326 2°55.162 -999 -999 -999 -999 -999
2007-05-09 11:25:46 51°14.334 2°55.146 -999 -999 -999 -999 -999
2007-05-09 11:25:52 51°14.345 2°55.122 -999 -999 -999 -999 -999
2007-05-09 11:25:57 51°14.354 2°55.101 -999 -999 -999 -999 -999
2007-05-09 11:26:01 51°14.361 2°55.084 -999 -999 -999 -999 -999
2007-05-09 11:26:06 51°14.37 2°55.063 -999 -999 -999 -999 -999
2007-05-09 11:26:12 51°14.381 2°55.037 -999 -999 -999 -999 -999
2007-05-09 11:26:16 51°14.388 2°55.019 -999 -999 -999 -999 -999
2007-05-09 11:26:21 51°14.397 2°54.996 -999 -999 -999 -999 -999
2007-05-09 11:26:27 51°14.407 2°54.969 -999 -999 -999 -999 -999
2007-05-09 11:26:32 51°14.416 2°54.945 -999 -999 -999 -999 -999
2007-05-09 11:26:36 51°14.422 2°54.926 -999 -999 -999 -999 -999
2007-05-09 11:26:41 51°14.431 2°54.902 -999 -999 -999 -999 -999
2007-05-09 11:26:47 51°14.441 2°54.872 -999 -999 -999 -999 -999
2007-05-09 11:26:52 51°14.449 2°54.847 -999 -999 -999 -999 -999
2007-05-09 11:26:56 51°14.456 2°54.827 -999 -999 -999 -999 -999
2007-05-09 11:27:01 51°14.465 2°54.801 -999 -999 -999 -999 -999
2007-05-09 11:27:06 51°14.475 2°54.776 -999 -999 -999 -999 -999
2007-05-09 11:27:12 51°14.486 2°54.745 -999 -999 -999 -999 -999
2007-05-09 11:27:17 51°14.495 2°54.72 -999 -999 -999 -999 -999
2007-05-09 11:27:21 51°14.503 2°54.7 -999 -999 -999 -999 -999
2007-05-09 11:27:26 51°14.513 2°54.675 -999 -999 -999 -999 -999
2007-05-09 11:27:32 51°14.524 2°54.644 -999 -999 -999 -999 -999
2007-05-09 11:27:37 51°14.534 2°54.619 -999 -999 -999 -999 -999
2007-05-09 11:27:41 51°14.541 2°54.598 -999 -999 -999 -999 -999
2007-05-09 11:27:46 51°14.551 2°54.573 -999 -999 -999 -999 -999
2007-05-09 11:27:51 51°14.56 2°54.547 -999 -999 -999 -999 -999
2007-05-09 11:27:57 51°14.571 2°54.516 -999 -999 -999 -999 -999
2007-05-09 11:28:01 51°14.579 2°54.495 -999 -999 -999 -999 -999
2007-05-09 11:28:06 51°14.588 2°54.469 -999 -999 -999 -999 -999
2007-05-09 11:28:12 51°14.597 2°54.437 -999 -999 -999 -999 -999
2007-05-09 11:28:16 51°14.603 2°54.415 -999 -999 -999 -999 -999
2007-05-09 11:28:21 51°14.611 2°54.387 -999 -999 -999 -999 -999
2007-05-09 11:28:26 51°14.618 2°54.359 -999 -999 -999 -999 -999
2007-05-09 11:28:32 51°14.626 2°54.326 -999 -999 -999 -999 -999
2007-05-09 11:28:36 51°14.632 2°54.303 -999 -999 -999 -999 -999
2007-05-09 11:28:41 51°14.638 2°54.275 -999 -999 -999 -999 -999
2007-05-09 11:28:47 51°14.646 2°54.241 -999 -999 -999 -999 -999
2007-05-09 11:28:52 51°14.653 2°54.212 -999 -999 -999 -999 -999
2007-05-09 11:28:56 51°14.658 2°54.189 -999 -999 -999 -999 -999
2007-05-09 11:29:01 51°14.665 2°54.161 -999 -999 -999 -999 -999
2007-05-09 11:29:06 51°14.672 2°54.132 -999 -999 -999 -999 -999
2007-05-09 11:29:12 51°14.679 2°54.098 -999 -999 -999 -999 -999
2007-05-09 11:29:17 51°14.685 2°54.069 -999 -999 -999 -999 -999
2007-05-09 11:29:21 51°14.69 2°54.046 -999 -999 -999 -999 -999
2007-05-09 11:29:26 51°14.695 2°54.017 -999 -999 -999 -999 -999
2007-05-09 11:29:32 51°14.701 2°53.982 -999 -999 -999 -999 -999
2007-05-09 11:29:37 51°14.706 2°53.952 -999 -999 -999 -999 -999
2007-05-09 11:29:41 51°14.709 2°53.928 -999 -999 -999 -999 -999
2007-05-09 11:29:46 51°14.712 2°53.898 -999 -999 -999 -999 -999
2007-05-09 11:29:51 51°14.714 2°53.868 -999 -999 -999 -999 -999
2007-05-09 11:29:56 51°14.716 2°53.838 -999 -999 -999 -999 -999
2007-05-09 11:30:01 51°14.717 2°53.808 -999 -999 -999 -999 -999
2007-05-09 11:30:06 51°14.719 2°53.778 -999 -999 -999 -999 -999
2007-05-09 11:30:12 51°14.72 2°53.742 -999 -999 -999 -999 -999
2007-05-09 11:30:17 51°14.72 2°53.711 -999 -999 -999 -999 -999
2007-05-09 11:30:21 51°14.721 2°53.687 -999 -999 -999 -999 -999
2007-05-09 11:30:26 51°14.721 2°53.657 -999 -999 -999 -999 -999
2007-05-09 11:30:32 51°14.723 2°53.62 -999 -999 -999 -999 -999
2007-05-09 11:30:36 51°14.723 2°53.596 -999 -999 -999 -999 -999
2007-05-09 11:30:41 51°14.725 2°53.565 -999 -999 -999 -999 -999
2007-05-09 11:30:47 51°14.726 2°53.529 -999 -999 -999 -999 -999
2007-05-09 11:30:52 51°14.728 2°53.498 -999 -999 -999 -999 -999
2007-05-09 11:30:56 51°14.728 2°53.474 -999 -999 -999 -999 -999
2007-05-09 11:31:01 51°14.73 2°53.443 -999 -999 -999 -999 -999
2007-05-09 11:31:06 51°14.731 2°53.412 -999 -999 -999 -999 -999
2007-05-09 11:31:12 51°14.732 2°53.376 -999 -999 -999 -999 -999
2007-05-09 11:31:16 51°14.733 2°53.352 -999 -999 -999 -999 -999
2007-05-09 11:31:21 51°14.734 2°53.322 -999 -999 -999 -999 -999
2007-05-09 11:31:27 51°14.736 2°53.285 -999 -999 -999 -999 -999
2007-05-09 11:31:32 51°14.737 2°53.255 -999 -999 -999 -999 -999
2007-05-09 11:31:37 51°14.739 2°53.225 -999 -999 -999 -999 -999
2007-05-09 11:31:41 51°14.74 2°53.201 -999 -999 -999 -999 -999
2007-05-09 11:31:46 51°14.742 2°53.171 -999 -999 -999 -999 -999
2007-05-09 11:31:52 51°14.744 2°53.135 -999 -999 -999 -999 -999
2007-05-09 11:31:56 51°14.745 2°53.111 -999 -999 -999 -999 -999
2007-05-09 11:32:01 51°14.746 2°53.081 -999 -999 -999 -999 -999
2007-05-09 11:32:06 51°14.748 2°53.051 -999 -999 -999 -999 -999
2007-05-09 11:32:12 51°14.749 2°53.014 -999 -999 -999 -999 -999
2007-05-09 11:32:17 51°14.75 2°52.983 -999 -999 -999 -999 -999
2007-05-09 11:32:21 51°14.751 2°52.959 -999 -999 -999 -999 -999
2007-05-09 11:32:26 51°14.751 2°52.929 -999 -999 -999 -999 -999
2007-05-09 11:32:32 51°14.752 2°52.892 -999 -999 -999 -999 -999
2007-05-09 11:32:37 51°14.753 2°52.862 -999 -999 -999 -999 -999
2007-05-09 11:32:41 51°14.754 2°52.837 -999 -999 -999 -999 -999
2007-05-09 11:32:46 51°14.756 2°52.806 -999 -999 -999 -999 -999
2007-05-09 11:32:51 51°14.757 2°52.776 -999 -999 -999 -999 -999
2007-05-09 11:32:56 51°14.759 2°52.746 -999 -999 -999 -999 -999
2007-05-09 11:33:02 51°14.761 2°52.709 -999 -999 -999 -999 -999
2007-05-09 11:33:06 51°14.763 2°52.684 -999 -999 -999 -999 -999
2007-05-09 11:33:12 51°14.765 2°52.648 -999 -999 -999 -999 -999
2007-05-09 11:33:16 51°14.766 2°52.623 -999 -999 -999 -999 -999
2007-05-09 11:33:22 51°14.768 2°52.586 -999 -999 -999 -999 -999
2007-05-09 11:33:26 51°14.769 2°52.562 -999 -999 -999 -999 -999
2007-05-09 11:33:32 51°14.77 2°52.525 -999 -999 -999 -999 -999
2007-05-09 11:33:37 51°14.771 2°52.494 -999 -999 -999 -999 -999
2007-05-09 11:33:41 51°14.772 2°52.469 -999 -999 -999 -999 -999
2007-05-09 11:33:47 51°14.773 2°52.432 -999 -999 -999 -999 -999
2007-05-09 11:33:52 51°14.773 2°52.401 -999 -999 -999 -999 -999
2007-05-09 11:33:56 51°14.774 2°52.376 -999 -999 -999 -999 -999
2007-05-09 11:34:01 51°14.774 2°52.345 -999 -999 -999 -999 -999
2007-05-09 11:34:06 51°14.775 2°52.314 -999 -999 -999 -999 -999
2007-05-09 11:34:12 51°14.776 2°52.276 -999 -999 -999 -999 -999
2007-05-09 11:34:16 51°14.776 2°52.251 -999 -999 -999 -999 -999
2007-05-09 11:34:21 51°14.778 2°52.22 -999 -999 -999 -999 -999
2007-05-09 11:34:26 51°14.779 2°52.189 -999 -999 -999 -999 -999
2007-05-09 11:34:32 51°14.781 2°52.152 -999 -999 -999 -999 -999
2007-05-09 11:34:37 51°14.782 2°52.12 -999 -999 -999 -999 -999
2007-05-09 11:34:41 51°14.783 2°52.095 -999 -999 -999 -999 -999
2007-05-09 11:34:46 51°14.785 2°52.064 -999 -999 -999 -999 -999
2007-05-09 11:34:51 51°14.786 2°52.033 -999 -999 -999 -999 -999
2007-05-09 11:34:57 51°14.787 2°51.995 -999 -999 -999 -999 -999
2007-05-09 11:35:02 51°14.789 2°51.964 -999 -999 -999 -999 -999
2007-05-09 11:35:06 51°14.79 2°51.938 -999 -999 -999 -999 -999
2007-05-09 11:35:12 51°14.791 2°51.901 -999 -999 -999 -999 -999
2007-05-09 11:35:16 51°14.791 2°51.876 -999 -999 -999 -999 -999
2007-05-09 11:35:22 51°14.793 2°51.838 -999 -999 -999 -999 -999
2007-05-09 11:35:26 51°14.793 2°51.812 -999 -999 -999 -999 -999
2007-05-09 11:35:32 51°14.795 2°51.775 -999 -999 -999 -999 -999
2007-05-09 11:35:36 51°14.796 2°51.75 -999 -999 -999 -999 -999
2007-05-09 11:35:42 51°14.798 2°51.712 -999 -999 -999 -999 -999
2007-05-09 11:35:47 51°14.799 2°51.68 -999 -999 -999 -999 -999
2007-05-09 11:35:52 51°14.801 2°51.649 -999 -999 -999 -999 -999
2007-05-09 11:35:56 51°14.802 2°51.624 -999 -999 -999 -999 -999
2007-05-09 11:36:01 51°14.803 2°51.593 -999 -999 -999 -999 -999
2007-05-09 11:36:07 51°14.805 2°51.555 -999 -999 -999 -999 -999
2007-05-09 11:36:12 51°14.807 2°51.524 -999 -999 -999 -999 -999
2007-05-09 11:36:16 51°14.808 2°51.499 -999 -999 -999 -999 -999
2007-05-09 11:36:21 51°14.809 2°51.467 -999 -999 -999 -999 -999
2007-05-09 11:36:26 51°14.811 2°51.436 -999 -999 -999 -999 -999
2007-05-09 11:36:32 51°14.812 2°51.398 -999 -999 -999 -999 -999
2007-05-09 11:36:37 51°14.814 2°51.367 -999 -999 -999 -999 -999
2007-05-09 11:36:41 51°14.815 2°51.342 -999 -999 -999 -999 -999
2007-05-09 11:36:46 51°14.816 2°51.31 -999 -999 -999 -999 -999
2007-05-09 11:36:52 51°14.817 2°51.273 -999 -999 -999 -999 -999
2007-05-09 11:36:57 51°14.819 2°51.241 -999 -999 -999 -999 -999
2007-05-09 11:37:01 51°14.82 2°51.216 -999 -999 -999 -999 -999
2007-05-09 11:37:06 51°14.821 2°51.185 -999 -999 -999 -999 -999
2007-05-09 11:37:11 51°14.822 2°51.153 -999 -999 -999 -999 -999
2007-05-09 11:37:17 51°14.824 2°51.116 -999 -999 -999 -999 -999
2007-05-09 11:37:22 51°14.825 2°51.084 -999 -999 -999 -999 -999
2007-05-09 11:37:26 51°14.826 2°51.059 -999 -999 -999 -999 -999
2007-05-09 11:37:32 51°14.827 2°51.021 -999 -999 -999 -999 -999
2007-05-09 11:37:36 51°14.829 2°50.996 -999 -999 -999 -999 -999
2007-05-09 11:37:42 51°14.83 2°50.958 -999 -999 -999 -999 -999
2007-05-09 11:37:46 51°14.832 2°50.933 -999 -999 -999 -999 -999
2007-05-09 11:37:52 51°14.834 2°50.896 -999 -999 -999 -999 -999
2007-05-09 11:37:56 51°14.835 2°50.871 -999 -999 -999 -999 -999
2007-05-09 11:38:01 51°14.836 2°50.839 -999 -999 -999 -999 -999
2007-05-09 11:38:07 51°14.838 2°50.801 -999 -999 -999 -999 -999
2007-05-09 11:38:12 51°14.839 2°50.77 -999 -999 -999 -999 -999
2007-05-09 11:38:16 51°14.841 2°50.745 -999 -999 -999 -999 -999
2007-05-09 11:38:21 51°14.842 2°50.713 -999 -999 -999 -999 -999
2007-05-09 11:38:27 51°14.844 2°50.676 -999 -999 -999 -999 -999
2007-05-09 11:38:32 51°14.845 2°50.644 -999 -999 -999 -999 -999
2007-05-09 11:38:36 51°14.846 2°50.619 -999 -999 -999 -999 -999
2007-05-09 11:38:41 51°14.848 2°50.587 -999 -999 -999 -999 -999
2007-05-09 11:38:46 51°14.849 2°50.556 -999 -999 -999 -999 -999
2007-05-09 11:38:52 51°14.851 2°50.518 -999 -999 -999 -999 -999
2007-05-09 11:38:57 51°14.853 2°50.487 -999 -999 -999 -999 -999
2007-05-09 11:39:01 51°14.854 2°50.462 -999 -999 -999 -999 -999
2007-05-09 11:39:06 51°14.855 2°50.43 -999 -999 -999 -999 -999
2007-05-09 11:39:11 51°14.857 2°50.399 -999 -999 -999 -999 -999
2007-05-09 11:39:17 51°14.858 2°50.361 -999 -999 -999 -999 -999
2007-05-09 11:39:21 51°14.858 2°50.336 -999 -999 -999 -999 -999
2007-05-09 11:39:26 51°14.859 2°50.304 -999 -999 -999 -999 -999
2007-05-09 11:39:32 51°14.859 2°50.267 -999 -999 -999 -999 -999
2007-05-09 11:39:36 51°14.859 2°50.242 -999 -999 -999 -999 -999
2007-05-09 11:39:42 51°14.858 2°50.204 -999 -999 -999 -999 -999
2007-05-09 11:39:46 51°14.855 2°50.18 -999 -999 -999 -999 -999
2007-05-09 11:39:52 51°14.851 2°50.143 -999 -999 -999 -999 -999
2007-05-09 11:39:56 51°14.849 2°50.118 -999 -999 -999 -999 -999
2007-05-09 11:40:01 51°14.846 2°50.087 -999 -999 -999 -999 -999
2007-05-09 11:40:07 51°14.843 2°50.049 -999 -999 -999 -999 -999
2007-05-09 11:40:12 51°14.841 2°50.019 -999 -999 -999 -999 -999
2007-05-09 11:40:16 51°14.839 2°49.995 -999 -999 -999 -999 -999
2007-05-09 11:40:21 51°14.837 2°49.965 -999 -999 -999 -999 -999
2007-05-09 11:40:27 51°14.834 2°49.93 -999 -999 -999 -999 -999
2007-05-09 11:40:32 51°14.832 2°49.901 -999 -999 -999 -999 -999
2007-05-09 11:40:36 51°14.83 2°49.878 -999 -999 -999 -999 -999
2007-05-09 11:40:41 51°14.828 2°49.849 -999 -999 -999 -999 -999
2007-05-09 11:40:46 51°14.826 2°49.82 -999 -999 -999 -999 -999
2007-05-09 11:40:52 51°14.824 2°49.786 -999 -999 -999 -999 -999
2007-05-09 11:40:57 51°14.822 2°49.757 -999 -999 -999 -999 -999
2007-05-09 11:41:01 51°14.82 2°49.733 -999 -999 -999 -999 -999
2007-05-09 11:41:06 51°14.818 2°49.703 -999 -999 -999 -999 -999
2007-05-09 11:41:12 51°14.816 2°49.667 -999 -999 -999 -999 -999
2007-05-09 11:41:17 51°14.814 2°49.636 -999 -999 -999 -999 -999
2007-05-09 11:41:21 51°14.812 2°49.611 -999 -999 -999 -999 -999
2007-05-09 11:41:26 51°14.81 2°49.58 -999 -999 -999 -999 -999
2007-05-09 11:41:32 51°14.808 2°49.543 -999 -999 -999 -999 -999
2007-05-09 11:41:37 51°14.806 2°49.512 -999 -999 -999 -999 -999
2007-05-09 11:41:42 51°14.804 2°49.48 -999 -999 -999 -999 -999
2007-05-09 11:41:46 51°14.802 2°49.455 -999 -999 -999 -999 -999
2007-05-09 11:41:52 51°14.8 2°49.417 -999 -999 -999 -999 -999
2007-05-09 11:41:57 51°14.798 2°49.386 -999 -999 -999 -999 -999
2007-05-09 11:42:01 51°14.796 2°49.36 -999 -999 -999 -999 -999
2007-05-09 11:42:06 51°14.795 2°49.329 -999 -999 -999 -999 -999
2007-05-09 11:42:12 51°14.793 2°49.291 -999 -999 -999 -999 -999
2007-05-09 11:42:16 51°14.791 2°49.266 -999 -999 -999 -999 -999
2007-05-09 11:42:22 51°14.79 2°49.228 -999 -999 -999 -999 -999
2007-05-09 11:42:27 51°14.788 2°49.196 -999 -999 -999 -999 -999
2007-05-09 11:42:32 51°14.786 2°49.164 -999 -999 -999 -999 -999
2007-05-09 11:42:36 51°14.785 2°49.139 -999 -999 -999 -999 -999
2007-05-09 11:42:41 51°14.783 2°49.107 -999 -999 -999 -999 -999
2007-05-09 11:42:47 51°14.781 2°49.07 -999 -999 -999 -999 -999
2007-05-09 11:42:52 51°14.779 2°49.038 -999 -999 -999 -999 -999
2007-05-09 11:42:56 51°14.778 2°49.013 -999 -999 -999 -999 -999
2007-05-09 11:43:01 51°14.777 2°48.981 -999 -999 -999 -999 -999
2007-05-09 11:43:07 51°14.775 2°48.943 -999 -999 -999 -999 -999
2007-05-09 11:43:12 51°14.774 2°48.912 -999 -999 -999 -999 -999
2007-05-09 11:43:17 51°14.772 2°48.88 -999 -999 -999 -999 -999
2007-05-09 11:43:21 51°14.771 2°48.855 -999 -999 -999 -999 -999
2007-05-09 11:43:26 51°14.769 2°48.823 -999 -999 -999 -999 -999
2007-05-09 11:43:32 51°14.767 2°48.785 -999 -999 -999 -999 -999
2007-05-09 11:43:37 51°14.766 2°48.753 -999 -999 -999 -999 -999
2007-05-09 11:43:41 51°14.764 2°48.728 -999 -999 -999 -999 -999
2007-05-09 11:43:46 51°14.763 2°48.696 -999 -999 -999 -999 -999
2007-05-09 11:43:52 51°14.761 2°48.658 -999 -999 -999 -999 -999
2007-05-09 11:43:57 51°14.759 2°48.627 -999 -999 -999 -999 -999
2007-05-09 11:44:01 51°14.758 2°48.601 -999 -999 -999 -999 -999
2007-05-09 11:44:06 51°14.756 2°48.569 -999 -999 -999 -999 -999
2007-05-09 11:44:12 51°14.754 2°48.531 -999 -999 -999 -999 -999
2007-05-09 11:44:17 51°14.753 2°48.5 -999 -999 -999 -999 -999
2007-05-09 11:44:21 51°14.751 2°48.474 -999 -999 -999 -999 -999
2007-05-09 11:44:26 51°14.75 2°48.443 -999 -999 -999 -999 -999
2007-05-09 11:44:32 51°14.748 2°48.404 -999 -999 -999 -999 -999
2007-05-09 11:44:36 51°14.747 2°48.379 -999 -999 -999 -999 -999
2007-05-09 11:44:42 51°14.745 2°48.341 -999 -999 -999 -999 -999
2007-05-09 11:44:47 51°14.744 2°48.31 -999 -999 -999 -999 -999
2007-05-09 11:44:52 51°14.742 2°48.278 -999 -999 -999 -999 -999
2007-05-09 11:44:56 51°14.74 2°48.253 -999 -999 -999 -999 -999
2007-05-09 11:45:01 51°14.739 2°48.221 -999 -999 -999 -999 -999
2007-05-09 11:45:06 51°14.737 2°48.189 -999 -999 -999 -999 -999
2007-05-09 11:45:12 51°14.735 2°48.152 -999 -999 -999 -999 -999
2007-05-09 11:45:17 51°14.734 2°48.12 -999 -999 -999 -999 -999
2007-05-09 11:45:21 51°14.733 2°48.095 -999 -999 -999 -999 -999
2007-05-09 11:45:26 51°14.731 2°48.063 -999 -999 -999 -999 -999
2007-05-09 11:45:32 51°14.73 2°48.026 -999 -999 -999 -999 -999
2007-05-09 11:45:37 51°14.728 2°47.994 -999 -999 -999 -999 -999
2007-05-09 11:45:41 51°14.727 2°47.969 -999 -999 -999 -999 -999
2007-05-09 11:45:46 51°14.726 2°47.938 -999 -999 -999 -999 -999
2007-05-09 11:45:51 51°14.725 2°47.906 -999 -999 -999 -999 -999
2007-05-09 11:45:57 51°14.723 2°47.869 -999 -999 -999 -999 -999
2007-05-09 11:46:01 51°14.722 2°47.843 -999 -999 -999 -999 -999
2007-05-09 11:46:06 51°14.72 2°47.812 -999 -999 -999 -999 -999
2007-05-09 11:46:12 51°14.718 2°47.774 -999 -999 -999 -999 -999
2007-05-09 11:46:17 51°14.717 2°47.743 -999 -999 -999 -999 -999
2007-05-09 11:46:21 51°14.716 2°47.718 -999 -999 -999 -999 -999
2007-05-09 11:46:26 51°14.714 2°47.686 -999 -999 -999 -999 -999
2007-05-09 11:46:32 51°14.713 2°47.648 -999 -999 -999 -999 -999
2007-05-09 11:46:37 51°14.711 2°47.617 -999 -999 -999 -999 -999
2007-05-09 11:46:42 51°14.71 2°47.585 -999 -999 -999 -999 -999
2007-05-09 11:46:47 51°14.708 2°47.554 -999 -999 -999 -999 -999
2007-05-09 11:46:52 51°14.706 2°47.522 -999 -999 -999 -999 -999
2007-05-09 11:46:56 51°14.705 2°47.497 -999 -999 -999 -999 -999
2007-05-09 11:47:02 51°14.704 2°47.459 -999 -999 -999 -999 -999
2007-05-09 11:47:06 51°14.703 2°47.434 -999 -999 -999 -999 -999
2007-05-09 11:47:12 51°14.701 2°47.396 -999 -999 -999 -999 -999
2007-05-09 11:47:16 51°14.7 2°47.371 -999 -999 -999 -999 -999
2007-05-09 11:47:21 51°14.698 2°47.339 -999 -999 -999 -999 -999
2007-05-09 11:47:27 51°14.696 2°47.301 -999 -999 -999 -999 -999
2007-05-09 11:47:32 51°14.695 2°47.27 -999 -999 -999 -999 -999
2007-05-09 11:47:37 51°14.694 2°47.238 -999 -999 -999 -999 -999
2007-05-09 11:47:41 51°14.693 2°47.213 -999 -999 -999 -999 -999
2007-05-09 11:47:46 51°14.691 2°47.181 -999 -999 -999 -999 -999
2007-05-09 11:47:52 51°14.689 2°47.144 -999 -999 -999 -999 -999
2007-05-09 11:47:56 51°14.688 2°47.118 -999 -999 -999 -999 -999
2007-05-09 11:48:01 51°14.686 2°47.087 -999 -999 -999 -999 -999
2007-05-09 11:48:06 51°14.685 2°47.055 -999 -999 -999 -999 -999
2007-05-09 11:48:12 51°14.683 2°47.018 -999 -999 -999 -999 -999
2007-05-09 11:48:17 51°14.681 2°46.986 -999 -999 -999 -999 -999
2007-05-09 11:48:21 51°14.68 2°46.961 -999 -999 -999 -999 -999
2007-05-09 11:48:26 51°14.678 2°46.93 -999 -999 -999 -999 -999
2007-05-09 11:48:32 51°14.677 2°46.892 -999 -999 -999 -999 -999
2007-05-09 11:48:37 51°14.675 2°46.86 -999 -999 -999 -999 -999
2007-05-09 11:48:41 51°14.674 2°46.835 -999 -999 -999 -999 -999
2007-05-09 11:48:46 51°14.672 2°46.804 -999 -999 -999 -999 -999
2007-05-09 11:48:52 51°14.67 2°46.766 -999 -999 -999 -999 -999
2007-05-09 11:48:56 51°14.669 2°46.741 -999 -999 -999 -999 -999
2007-05-09 11:49:02 51°14.668 2°46.703 -999 -999 -999 -999 -999
2007-05-09 11:49:06 51°14.666 2°46.678 -999 -999 -999 -999 -999
2007-05-09 11:49:12 51°14.665 2°46.64 -999 -999 -999 -999 -999
2007-05-09 11:49:16 51°14.664 2°46.615 -999 -999 -999 -999 -999
2007-05-09 11:49:22 51°14.662 2°46.578 -999 -999 -999 -999 -999
2007-05-09 11:49:26 51°14.661 2°46.552 -999 -999 -999 -999 -999
2007-05-09 11:49:32 51°14.66 2°46.515 -999 -999 -999 -999 -999
2007-05-09 11:49:37 51°14.658 2°46.484 -999 -999 -999 -999 -999
2007-05-09 11:49:41 51°14.657 2°46.458 -999 -999 -999 -999 -999
2007-05-09 11:49:47 51°14.655 2°46.421 -999 -999 -999 -999 -999
2007-05-09 11:49:52 51°14.654 2°46.39 -999 -999 -999 -999 -999
2007-05-09 11:49:56 51°14.653 2°46.365 -999 -999 -999 -999 -999
2007-05-09 11:50:01 51°14.651 2°46.334 -999 -999 -999 -999 -999
2007-05-09 11:50:06 51°14.65 2°46.303 -999 -999 -999 -999 -999
2007-05-09 11:50:12 51°14.647 2°46.266 -999 -999 -999 -999 -999
2007-05-09 11:50:17 51°14.646 2°46.235 -999 -999 -999 -999 -999
2007-05-09 11:50:21 51°14.645 2°46.211 -999 -999 -999 -999 -999
2007-05-09 11:50:26 51°14.643 2°46.18 -999 -999 -999 -999 -999
2007-05-09 11:50:32 51°14.641 2°46.144 -999 -999 -999 -999 -999
2007-05-09 11:50:37 51°14.639 2°46.114 -999 -999 -999 -999 -999
2007-05-09 11:50:41 51°14.638 2°46.089 -999 -999 -999 -999 -999
2007-05-09 11:50:46 51°14.636 2°46.059 -999 -999 -999 -999 -999
2007-05-09 11:50:51 51°14.635 2°46.029 -999 -999 -999 -999 -999
2007-05-09 11:50:57 51°14.633 2°45.993 -999 -999 -999 -999 -999
2007-05-09 11:51:02 51°14.632 2°45.963 -999 -999 -999 -999 -999
2007-05-09 11:51:06 51°14.631 2°45.939 -999 -999 -999 -999 -999
2007-05-09 11:51:12 51°14.63 2°45.904 -999 -999 -999 -999 -999
2007-05-09 11:51:16 51°14.63 2°45.88 -999 -999 -999 -999 -999
2007-05-09 11:51:22 51°14.629 2°45.844 -999 -999 -999 -999 -999
2007-05-09 11:51:26 51°14.628 2°45.82 -999 -999 -999 -999 -999
2007-05-09 11:51:32 51°14.627 2°45.784 -999 -999 -999 -999 -999
2007-05-09 11:51:36 51°14.626 2°45.76 -999 -999 -999 -999 -999
2007-05-09 11:51:42 51°14.625 2°45.724 -999 -999 -999 -999 -999
2007-05-09 11:51:47 51°14.623 2°45.694 -999 -999 -999 -999 -999
2007-05-09 11:51:52 51°14.622 2°45.664 -999 -999 -999 -999 -999
2007-05-09 11:51:56 51°14.621 2°45.64 -999 -999 -999 -999 -999
2007-05-09 11:52:01 51°14.619 2°45.61 -999 -999 -999 -999 -999
2007-05-09 11:52:07 51°14.617 2°45.573 -999 -999 -999 -999 -999
2007-05-09 11:52:12 51°14.615 2°45.543 -999 -999 -999 -999 -999
2007-05-09 11:52:16 51°14.614 2°45.518 -999 -999 -999 -999 -999
2007-05-09 11:52:21 51°14.612 2°45.488 -999 -999 -999 -999 -999
2007-05-09 11:52:26 51°14.61 2°45.457 -999 -999 -999 -999 -999
2007-05-09 11:52:32 51°14.607 2°45.42 -999 -999 -999 -999 -999
2007-05-09 11:52:37 51°14.604 2°45.389 -999 -999 -999 -999 -999
2007-05-09 11:52:41 51°14.601 2°45.364 -999 -999 -999 -999 -999
2007-05-09 11:52:46 51°14.598 2°45.333 -999 -999 -999 -999 -999
2007-05-09 11:52:51 51°14.594 2°45.303 -999 -999 -999 -999 -999
2007-05-09 11:52:57 51°14.589 2°45.266 -999 -999 -999 -999 -999
2007-05-09 11:53:01 51°14.586 2°45.241 -999 -999 -999 -999 -999
2007-05-09 11:53:06 51°14.582 2°45.211 -999 -999 -999 -999 -999
2007-05-09 11:53:12 51°14.576 2°45.174 -999 -999 -999 -999 -999
2007-05-09 11:53:17 51°14.573 2°45.143 -999 -999 -999 -999 -999
2007-05-09 11:53:22 51°14.568 2°45.113 -999 -999 -999 -999 -999
2007-05-09 11:53:26 51°14.565 2°45.089 -999 -999 -999 -999 -999
2007-05-09 11:53:32 51°14.56 2°45.052 -999 -999 -999 -999 -999
2007-05-09 11:53:36 51°14.557 2°45.027 -999 -999 -999 -999 -999
2007-05-09 11:53:42 51°14.552 2°44.991 -999 -999 -999 -999 -999
2007-05-09 11:53:46 51°14.549 2°44.966 -999 -999 -999 -999 -999
2007-05-09 11:53:52 51°14.544 2°44.93 -999 -999 -999 -999 -999
2007-05-09 11:53:56 51°14.541 2°44.905 -999 -999 -999 -999 -999
2007-05-09 11:54:01 51°14.537 2°44.875 -999 -999 -999 -999 -999
2007-05-09 11:54:07 51°14.532 2°44.838 -999 -999 -999 -999 -999
2007-05-09 11:54:12 51°14.527 2°44.808 -999 -999 -999 -999 -999
2007-05-09 11:54:16 51°14.524 2°44.783 -999 -999 -999 -999 -999
2007-05-09 11:54:21 51°14.519 2°44.753 -999 -999 -999 -999 -999
2007-05-09 11:54:27 51°14.512 2°44.717 -999 -999 -999 -999 -999
2007-05-09 11:54:32 51°14.507 2°44.687 -999 -999 -999 -999 -999
2007-05-09 11:54:37 51°14.501 2°44.657 -999 -999 -999 -999 -999
2007-05-09 11:54:41 51°14.496 2°44.633 -999 -999 -999 -999 -999
2007-05-09 11:54:46 51°14.491 2°44.603 -999 -999 -999 -999 -999
2007-05-09 11:54:52 51°14.484 2°44.568 -999 -999 -999 -999 -999
2007-05-09 11:54:57 51°14.478 2°44.538 -999 -999 -999 -999 -999
2007-05-09 11:55:01 51°14.474 2°44.514 -999 -999 -999 -999 -999
2007-05-09 11:55:06 51°14.468 2°44.484 -999 -999 -999 -999 -999
2007-05-09 11:55:11 51°14.463 2°44.454 -999 -999 -999 -999 -999
2007-05-09 11:55:17 51°14.455 2°44.418 -999 -999 -999 -999 -999
2007-05-09 11:55:22 51°14.449 2°44.388 -999 -999 -999 -999 -999
2007-05-09 11:55:26 51°14.444 2°44.365 -999 -999 -999 -999 -999
2007-05-09 11:55:32 51°14.434 2°44.331 -999 -999 -999 -999 -999
2007-05-09 11:55:37 51°14.426 2°44.303 -999 -999 -999 -999 -999
2007-05-09 11:55:42 51°14.417 2°44.275 -999 -999 -999 -999 -999
2007-05-09 11:55:46 51°14.41 2°44.253 -999 -999 -999 -999 -999
2007-05-09 11:55:52 51°14.399 2°44.22 -999 -999 -999 -999 -999
2007-05-09 11:55:56 51°14.391 2°44.198 -999 -999 -999 -999 -999
2007-05-09 11:56:02 51°14.379 2°44.166 -999 -999 -999 -999 -999
2007-05-09 11:56:07 51°14.37 2°44.138 -999 -999 -999 -999 -999
2007-05-09 11:56:12 51°14.36 2°44.112 -999 -999 -999 -999 -999
2007-05-09 11:56:16 51°14.352 2°44.09 -999 -999 -999 -999 -999
2007-05-09 11:56:22 51°14.34 2°44.057 -999 -999 -999 -999 -999
2007-05-09 11:56:27 51°14.331 2°44.03 -999 -999 -999 -999 -999
2007-05-09 11:56:32 51°14.32 2°44.003 -999 -999 -999 -999 -999
2007-05-09 11:56:36 51°14.312 2°43.982 -999 -999 -999 -999 -999
2007-05-09 11:56:41 51°14.302 2°43.955 -999 -999 -999 -999 -999
2007-05-09 11:56:47 51°14.29 2°43.923 -999 -999 -999 -999 -999
2007-05-09 11:56:52 51°14.279 2°43.897 -999 -999 -999 -999 -999
2007-05-09 11:56:57 51°14.269 2°43.87 -999 -999 -999 -999 -999
2007-05-09 11:57:01 51°14.26 2°43.849 -999 -999 -999 -999 -999
2007-05-09 11:57:06 51°14.249 2°43.823 -999 -999 -999 -999 -999
2007-05-09 11:57:11 51°14.238 2°43.797 -999 -999 -999 -999 -999
2007-05-09 11:57:17 51°14.224 2°43.767 -999 -999 -999 -999 -999
2007-05-09 11:57:21 51°14.215 2°43.747 -999 -999 -999 -999 -999
2007-05-09 11:57:26 51°14.204 2°43.722 -999 -999 -999 -999 -999
2007-05-09 11:57:32 51°14.19 2°43.692 -999 -999 -999 -999 -999
2007-05-09 11:57:37 51°14.178 2°43.666 -999 -999 -999 -999 -999
2007-05-09 11:57:42 51°14.166 2°43.641 -999 -999 -999 -999 -999
2007-05-09 11:57:46 51°14.157 2°43.62 -999 -999 -999 -999 -999
2007-05-09 11:57:52 51°14.143 2°43.59 -999 -999 -999 -999 -999
2007-05-09 11:57:56 51°14.134 2°43.57 -999 -999 -999 -999 -999
2007-05-09 11:58:01 51°14.122 2°43.545 -999 -999 -999 -999 -999
2007-05-09 11:58:06 51°14.111 2°43.519 -999 -999 -999 -999 -999
2007-05-09 11:58:12 51°14.097 2°43.488 -999 -999 -999 -999 -999
2007-05-09 11:58:16 51°14.088 2°43.468 -999 -999 -999 -999 -999
2007-05-09 11:58:22 51°14.074 2°43.437 -999 -999 -999 -999 -999
2007-05-09 11:58:27 51°14.063 2°43.412 -999 -999 -999 -999 -999
2007-05-09 11:58:32 51°14.051 2°43.386 -999 -999 -999 -999 -999
2007-05-09 11:58:36 51°14.042 2°43.365 -999 -999 -999 -999 -999
2007-05-09 11:58:41 51°14.031 2°43.34 -999 -999 -999 -999 -999
2007-05-09 11:58:47 51°14.017 2°43.309 -999 -999 -999 -999 -999
2007-05-09 11:58:52 51°14.005 2°43.284 -999 -999 -999 -999 -999
2007-05-09 11:58:57 51°13.994 2°43.258 -999 -999 -999 -999 -999
2007-05-09 11:59:01 51°13.984 2°43.238 -999 -999 -999 -999 -999
2007-05-09 11:59:06 51°13.973 2°43.212 -999 -999 -999 -999 -999
2007-05-09 11:59:12 51°13.959 2°43.182 -999 -999 -999 -999 -999
2007-05-09 11:59:17 51°13.948 2°43.155 -999 -999 -999 -999 -999
2007-05-09 11:59:21 51°13.939 2°43.135 -999 -999 -999 -999 -999
2007-05-09 11:59:26 51°13.927 2°43.109 -999 -999 -999 -999 -999
2007-05-09 11:59:32 51°13.914 2°43.078 -999 -999 -999 -999 -999
2007-05-09 11:59:37 51°13.902 2°43.053 -999 -999 -999 -999 -999
2007-05-09 11:59:42 51°13.891 2°43.027 -999 -999 -999 -999 -999
2007-05-09 11:59:46 51°13.881 2°43.007 -999 -999 -999 -999 -999
2007-05-09 11:59:52 51°13.868 2°42.976 -999 -999 -999 -999 -999
2007-05-09 11:59:57 51°13.856 2°42.95 -999 -999 -999 -999 -999
2007-05-09 12:00:01 51°13.847 2°42.929 -999 -999 -999 -999 -999
2007-05-09 12:00:06 51°13.836 2°42.904 -999 -999 -999 -999 -999
2007-05-09 12:00:12 51°13.822 2°42.873 -999 -999 -999 -999 -999
2007-05-09 12:00:16 51°13.813 2°42.852 -999 -999 -999 -999 -999
2007-05-09 12:00:22 51°13.799 2°42.821 -999 -999 -999 -999 -999
2007-05-09 12:00:27 51°13.788 2°42.795 -999 -999 -999 -999 -999
2007-05-09 12:00:32 51°13.776 2°42.77 -999 -999 -999 -999 -999
2007-05-09 12:00:36 51°13.767 2°42.749 -999 -999 -999 -999 -999
2007-05-09 12:00:42 51°13.753 2°42.718 -999 -999 -999 -999 -999
2007-05-09 12:00:47 51°13.741 2°42.692 -999 -999 -999 -999 -999
2007-05-09 12:00:52 51°13.73 2°42.666 -999 -999 -999 -999 -999
2007-05-09 12:00:56 51°13.721 2°42.646 -999 -999 -999 -999 -999
2007-05-09 12:01:01 51°13.71 2°42.62 -999 -999 -999 -999 -999
2007-05-09 12:01:07 51°13.696 2°42.589 -999 -999 -999 -999 -999
2007-05-09 12:01:12 51°13.685 2°42.563 -999 -999 -999 -999 -999
2007-05-09 12:01:17 51°13.673 2°42.537 -999 -999 -999 -999 -999
2007-05-09 12:01:21 51°13.664 2°42.516 -999 -999 -999 -999 -999
2007-05-09 12:01:26 51°13.653 2°42.491 -999 -999 -999 -999 -999
2007-05-09 12:01:32 51°13.639 2°42.46 -999 -999 -999 -999 -999
2007-05-09 12:01:37 51°13.628 2°42.434 -999 -999 -999 -999 -999
2007-05-09 12:01:42 51°13.616 2°42.408 -999 -999 -999 -999 -999
2007-05-09 12:01:46 51°13.607 2°42.388 -999 -999 -999 -999 -999
2007-05-09 12:01:52 51°13.593 2°42.357 -999 -999 -999 -999 -999
2007-05-09 12:01:57 51°13.582 2°42.331 -999 -999 -999 -999 -999
2007-05-09 12:02:01 51°13.573 2°42.311 -999 -999 -999 -999 -999
2007-05-09 12:02:06 51°13.562 2°42.285 -999 -999 -999 -999 -999
2007-05-09 12:02:12 51°13.548 2°42.254 -999 -999 -999 -999 -999
2007-05-09 12:02:17 51°13.537 2°42.228 -999 -999 -999 -999 -999
2007-05-09 12:02:21 51°13.528 2°42.207 -999 -999 -999 -999 -999
2007-05-09 12:02:27 51°13.514 2°42.176 -999 -999 -999 -999 -999
2007-05-09 12:02:32 51°13.503 2°42.15 -999 -999 -999 -999 -999
2007-05-09 12:02:37 51°13.491 2°42.124 -999 -999 -999 -999 -999
2007-05-09 12:02:42 51°13.48 2°42.099 -999 -999 -999 -999 -999
2007-05-09 12:02:47 51°13.468 2°42.073 -999 -999 -999 -999 -999
2007-05-09 12:02:52 51°13.457 2°42.047 -999 -999 -999 -999 -999
2007-05-09 12:02:56 51°13.448 2°42.027 -999 -999 -999 -999 -999
2007-05-09 12:03:02 51°13.434 2°41.995 -999 -999 -999 -999 -999
2007-05-09 12:03:06 51°13.425 2°41.974 -999 -999 -999 -999 -999
2007-05-09 12:03:12 51°13.411 2°41.943 -999 -999 -999 -999 -999
2007-05-09 12:03:17 51°13.4 2°41.917 -999 -999 -999 -999 -999
2007-05-09 12:03:21 51°13.391 2°41.897 -999 -999 -999 -999 -999
2007-05-09 12:03:27 51°13.377 2°41.865 -999 -999 -999 -999 -999
2007-05-09 12:03:32 51°13.366 2°41.839 -999 -999 -999 -999 -999
2007-05-09 12:03:37 51°13.355 2°41.813 -999 -999 -999 -999 -999
2007-05-09 12:03:41 51°13.346 2°41.792 -999 -999 -999 -999 -999
2007-05-09 12:03:47 51°13.332 2°41.761 -999 -999 -999 -999 -999
2007-05-09 12:03:52 51°13.32 2°41.735 -999 -999 -999 -999 -999
2007-05-09 12:03:57 51°13.309 2°41.709 -999 -999 -999 -999 -999
2007-05-09 12:04:01 51°13.3 2°41.688 -999 -999 -999 -999 -999
2007-05-09 12:04:06 51°13.288 2°41.663 -999 -999 -999 -999 -999
2007-05-09 12:04:12 51°13.275 2°41.631 -999 -999 -999 -999 -999
2007-05-09 12:04:17 51°13.263 2°41.606 -999 -999 -999 -999 -999
2007-05-09 12:04:21 51°13.254 2°41.585 -999 -999 -999 -999 -999
2007-05-09 12:04:26 51°13.243 2°41.559 -999 -999 -999 -999 -999
2007-05-09 12:04:32 51°13.229 2°41.528 -999 -999 -999 -999 -999
2007-05-09 12:04:37 51°13.218 2°41.502 -999 -999 -999 -999 -999
2007-05-09 12:04:42 51°13.206 2°41.477 -999 -999 -999 -999 -999
2007-05-09 12:04:47 51°13.195 2°41.451 -999 -999 -999 -999 -999
2007-05-09 12:04:52 51°13.184 2°41.425 -999 -999 -999 -999 -999
2007-05-09 12:04:56 51°13.175 2°41.404 -999 -999 -999 -999 -999
2007-05-09 12:05:02 51°13.161 2°41.373 -999 -999 -999 -999 -999
2007-05-09 12:05:06 51°13.152 2°41.352 -999 -999 -999 -999 -999
2007-05-09 12:05:12 51°13.139 2°41.321 -999 -999 -999 -999 -999
2007-05-09 12:05:17 51°13.127 2°41.296 -999 -999 -999 -999 -999
2007-05-09 12:05:21 51°13.118 2°41.275 -999 -999 -999 -999 -999
2007-05-09 12:05:27 51°13.104 2°41.244 -999 -999 -999 -999 -999
2007-05-09 12:05:32 51°13.093 2°41.218 -999 -999 -999 -999 -999
2007-05-09 12:05:37 51°13.082 2°41.193 -999 -999 -999 -999 -999
2007-05-09 12:05:41 51°13.073 2°41.172 -999 -999 -999 -999 -999
2007-05-09 12:05:47 51°13.059 2°41.141 -999 -999 -999 -999 -999
2007-05-09 12:05:52 51°13.048 2°41.115 -999 -999 -999 -999 -999
2007-05-09 12:05:56 51°13.04 2°41.094 -999 -999 -999 -999 -999
2007-05-09 12:06:01 51°13.028 2°41.069 -999 -999 -999 -999 -999
2007-05-09 12:06:06 51°13.017 2°41.043 -999 -999 -999 -999 -999
2007-05-09 12:06:12 51°13.003 2°41.012 -999 -999 -999 -999 -999
2007-05-09 12:06:17 51°12.992 2°40.986 -999 -999 -999 -999 -999
2007-05-09 12:06:21 51°12.983 2°40.966 -999 -999 -999 -999 -999
2007-05-09 12:06:26 51°12.972 2°40.94 -999 -999 -999 -999 -999
2007-05-09 12:06:32 51°12.958 2°40.909 -999 -999 -999 -999 -999
2007-05-09 12:06:37 51°12.947 2°40.883 -999 -999 -999 -999 -999
2007-05-09 12:06:42 51°12.935 2°40.858 -999 -999 -999 -999 -999
2007-05-09 12:06:47 51°12.924 2°40.832 -999 -999 -999 -999 -999
2007-05-09 12:06:52 51°12.913 2°40.806 -999 -999 -999 -999 -999
2007-05-09 12:06:57 51°12.902 2°40.781 -999 -999 -999 -999 -999
2007-05-09 12:07:02 51°12.89 2°40.755 -999 -999 -999 -999 -999
2007-05-09 12:07:06 51°12.882 2°40.734 -999 -999 -999 -999 -999
2007-05-09 12:07:12 51°12.868 2°40.704 -999 -999 -999 -999 -999
2007-05-09 12:07:16 51°12.859 2°40.683 -999 -999 -999 -999 -999
2007-05-09 12:07:22 51°12.846 2°40.652 -999 -999 -999 -999 -999
2007-05-09 12:07:27 51°12.834 2°40.626 -999 -999 -999 -999 -999
2007-05-09 12:07:32 51°12.824 2°40.6 -999 -999 -999 -999 -999
2007-05-09 12:07:37 51°12.812 2°40.575 -999 -999 -999 -999 -999
2007-05-09 12:07:41 51°12.803 2°40.554 -999 -999 -999 -999 -999
2007-05-09 12:07:46 51°12.792 2°40.528 -999 -999 -999 -999 -999
2007-05-09 12:07:51 51°12.781 2°40.503 -999 -999 -999 -999 -999
2007-05-09 12:07:56 51°12.77 2°40.477 -999 -999 -999 -999 -999
2007-05-09 12:08:02 51°12.757 2°40.446 -999 -999 -999 -999 -999
2007-05-09 12:08:07 51°12.746 2°40.421 -999 -999 -999 -999 -999
2007-05-09 12:08:12 51°12.735 2°40.395 -999 -999 -999 -999 -999
2007-05-09 12:08:17 51°12.723 2°40.37 -999 -999 -999 -999 -999
2007-05-09 12:08:21 51°12.715 2°40.349 -999 -999 -999 -999 -999
2007-05-09 12:08:26 51°12.704 2°40.324 -999 -999 -999 -999 -999
2007-05-09 12:08:31 51°12.692 2°40.298 -999 -999 -999 -999 -999
2007-05-09 12:08:37 51°12.679 2°40.268 -999 -999 -999 -999 -999
2007-05-09 12:08:41 51°12.67 2°40.248 -999 -999 -999 -999 -999
2007-05-09 12:08:46 51°12.658 2°40.222 -999 -999 -999 -999 -999
2007-05-09 12:08:51 51°12.647 2°40.197 -999 -999 -999 -999 -999
2007-05-09 12:08:57 51°12.634 2°40.167 -999 -999 -999 -999 -999
2007-05-09 12:09:01 51°12.625 2°40.146 -999 -999 -999 -999 -999
2007-05-09 12:09:06 51°12.614 2°40.12 -999 -999 -999 -999 -999
2007-05-09 12:09:11 51°12.602 2°40.095 -999 -999 -999 -999 -999
2007-05-09 12:09:16 51°12.592 2°40.068 -999 -999 -999 -999 -999
2007-05-09 12:09:22 51°12.578 2°40.038 -999 -999 -999 -999 -999
2007-05-09 12:09:26 51°12.569 2°40.017 -999 -999 -999 -999 -999
2007-05-09 12:09:31 51°12.558 2°39.991 -999 -999 -999 -999 -999
2007-05-09 12:09:36 51°12.547 2°39.965 -999 -999 -999 -999 -999
2007-05-09 12:09:41 51°12.536 2°39.939 -999 -999 -999 -999 -999
2007-05-09 12:09:46 51°12.525 2°39.914 -999 -999 -999 -999 -999
2007-05-09 12:09:51 51°12.514 2°39.888 -999 -999 -999 -999 -999
2007-05-09 12:09:56 51°12.503 2°39.863 -999 -999 -999 -999 -999
2007-05-09 12:10:01 51°12.491 2°39.837 -999 -999 -999 -999 -999
2007-05-09 12:10:06 51°12.48 2°39.812 -999 -999 -999 -999 -999
2007-05-09 12:10:11 51°12.469 2°39.786 -999 -999 -999 -999 -999
2007-05-09 12:10:16 51°12.458 2°39.76 -999 -999 -999 -999 -999
2007-05-09 12:10:21 51°12.447 2°39.734 -999 -999 -999 -999 -999
2007-05-09 12:10:26 51°12.435 2°39.708 -999 -999 -999 -999 -999
2007-05-09 12:10:31 51°12.424 2°39.683 -999 -999 -999 -999 -999
2007-05-09 12:10:37 51°12.411 2°39.652 -999 -999 -999 -999 -999
2007-05-09 12:10:41 51°12.402 2°39.631 -999 -999 -999 -999 -999
2007-05-09 12:10:46 51°12.391 2°39.606 -999 -999 -999 -999 -999
2007-05-09 12:10:51 51°12.379 2°39.58 -999 -999 -999 -999 -999
2007-05-09 12:10:57 51°12.366 2°39.549 -999 -999 -999 -999 -999
2007-05-09 12:11:01 51°12.357 2°39.529 -999 -999 -999 -999 -999
2007-05-09 12:11:06 51°12.346 2°39.503 -999 -999 -999 -999 -999
2007-05-09 12:11:11 51°12.334 2°39.477 -999 -999 -999 -999 -999
2007-05-09 12:11:16 51°12.323 2°39.451 -999 -999 -999 -999 -999
2007-05-09 12:11:22 51°12.31 2°39.42 -999 -999 -999 -999 -999
2007-05-09 12:11:26 51°12.301 2°39.4 -999 -999 -999 -999 -999
2007-05-09 12:11:31 51°12.29 2°39.374 -999 -999 -999 -999 -999
2007-05-09 12:11:36 51°12.279 2°39.348 -999 -999 -999 -999 -999
2007-05-09 12:11:41 51°12.267 2°39.322 -999 -999 -999 -999 -999
2007-05-09 12:11:46 51°12.256 2°39.296 -999 -999 -999 -999 -999
2007-05-09 12:11:51 51°12.245 2°39.271 -999 -999 -999 -999 -999
2007-05-09 12:11:56 51°12.234 2°39.245 -999 -999 -999 -999 -999
2007-05-09 12:12:01 51°12.222 2°39.219 -999 -999 -999 -999 -999
2007-05-09 12:12:06 51°12.211 2°39.193 -999 -999 -999 -999 -999
2007-05-09 12:12:11 51°12.2 2°39.168 -999 -999 -999 -999 -999
2007-05-09 12:12:16 51°12.189 2°39.142 -999 -999 -999 -999 -999
2007-05-09 12:12:21 51°12.177 2°39.117 -999 -999 -999 -999 -999
2007-05-09 12:12:26 51°12.166 2°39.091 -999 -999 -999 -999 -999
2007-05-09 12:12:31 51°12.155 2°39.065 -999 -999 -999 -999 -999
2007-05-09 12:12:36 51°12.144 2°39.039 -999 -999 -999 -999 -999
2007-05-09 12:12:41 51°12.132 2°39.014 -999 -999 -999 -999 -999
2007-05-09 12:12:46 51°12.121 2°38.988 -999 -999 -999 -999 -999
2007-05-09 12:12:51 51°12.11 2°38.962 -999 -999 -999 -999 -999
2007-05-09 12:12:57 51°12.096 2°38.932 -999 -999 -999 -999 -999
2007-05-09 12:13:01 51°12.087 2°38.911 -999 -999 -999 -999 -999
2007-05-09 12:13:06 51°12.076 2°38.885 -999 -999 -999 -999 -999
2007-05-09 12:13:11 51°12.065 2°38.859 -999 -999 -999 -999 -999
2007-05-09 12:13:17 51°12.051 2°38.829 -999 -999 -999 -999 -999
2007-05-09 12:13:21 51°12.042 2°38.808 -999 -999 -999 -999 -999
2007-05-09 12:13:26 51°12.031 2°38.782 -999 -999 -999 -999 -999
2007-05-09 12:13:31 51°12.019 2°38.757 -999 -999 -999 -999 -999
2007-05-09 12:13:37 51°12.006 2°38.725 -999 -999 -999 -999 -999
2007-05-09 12:13:41 51°11.997 2°38.705 -999 -999 -999 -999 -999
2007-05-09 12:13:46 51°11.986 2°38.679 -999 -999 -999 -999 -999
2007-05-09 12:13:51 51°11.974 2°38.653 -999 -999 -999 -999 -999
2007-05-09 12:13:56 51°11.963 2°38.627 -999 -999 -999 -999 -999
2007-05-09 12:14:01 51°11.952 2°38.601 -999 -999 -999 -999 -999
2007-05-09 12:14:06 51°11.941 2°38.576 -999 -999 -999 -999 -999
2007-05-09 12:14:11 51°11.929 2°38.55 -999 -999 -999 -999 -999
2007-05-09 12:14:16 51°11.918 2°38.524 -999 -999 -999 -999 -999
2007-05-09 12:14:21 51°11.907 2°38.498 -999 -999 -999 -999 -999
2007-05-09 12:14:26 51°11.896 2°38.472 -999 -999 -999 -999 -999
2007-05-09 12:14:31 51°11.885 2°38.446 -999 -999 -999 -999 -999
2007-05-09 12:14:36 51°11.873 2°38.42 -999 -999 -999 -999 -999
2007-05-09 12:14:41 51°11.862 2°38.394 -999 -999 -999 -999 -999
2007-05-09 12:14:46 51°11.851 2°38.369 -999 -999 -999 -999 -999
2007-05-09 12:14:51 51°11.84 2°38.342 -999 -999 -999 -999 -999
2007-05-09 12:14:57 51°11.826 2°38.312 -999 -999 -999 -999 -999
2007-05-09 12:15:01 51°11.817 2°38.291 -999 -999 -999 -999 -999
2007-05-09 12:15:06 51°11.806 2°38.265 -999 -999 -999 -999 -999
2007-05-09 12:15:11 51°11.795 2°38.239 -999 -999 -999 -999 -999
2007-05-09 12:15:17 51°11.781 2°38.208 -999 -999 -999 -999 -999
2007-05-09 12:15:21 51°11.773 2°38.187 -999 -999 -999 -999 -999
2007-05-09 12:15:26 51°11.761 2°38.162 -999 -999 -999 -999 -999
2007-05-09 12:15:31 51°11.75 2°38.136 -999 -999 -999 -999 -999
2007-05-09 12:15:37 51°11.737 2°38.105 -999 -999 -999 -999 -999
2007-05-09 12:15:41 51°11.727 2°38.084 -999 -999 -999 -999 -999
2007-05-09 12:15:46 51°11.716 2°38.058 -999 -999 -999 -999 -999
2007-05-09 12:15:51 51°11.705 2°38.033 -999 -999 -999 -999 -999
2007-05-09 12:15:56 51°11.694 2°38.007 -999 -999 -999 -999 -999
2007-05-09 12:16:01 51°11.683 2°37.981 -999 -999 -999 -999 -999
2007-05-09 12:16:06 51°11.671 2°37.955 -999 -999 -999 -999 -999
2007-05-09 12:16:11 51°11.66 2°37.93 -999 -999 -999 -999 -999
2007-05-09 12:16:16 51°11.649 2°37.904 -999 -999 -999 -999 -999
2007-05-09 12:16:21 51°11.637 2°37.878 -999 -999 -999 -999 -999
2007-05-09 12:16:26 51°11.625 2°37.853 -999 -999 -999 -999 -999
2007-05-09 12:16:31 51°11.614 2°37.828 -999 -999 -999 -999 -999
2007-05-09 12:16:36 51°11.601 2°37.803 -999 -999 -999 -999 -999
2007-05-09 12:16:41 51°11.589 2°37.779 -999 -999 -999 -999 -999
2007-05-09 12:16:46 51°11.577 2°37.754 -999 -999 -999 -999 -999
2007-05-09 12:16:51 51°11.565 2°37.729 -999 -999 -999 -999 -999
2007-05-09 12:16:56 51°11.553 2°37.705 -999 -999 -999 -999 -999
2007-05-09 12:17:01 51°11.54 2°37.68 -999 -999 -999 -999 -999
2007-05-09 12:17:06 51°11.528 2°37.656 -999 -999 -999 -999 -999
2007-05-09 12:17:11 51°11.516 2°37.632 -999 -999 -999 -999 -999
2007-05-09 12:17:17 51°11.501 2°37.603 -999 -999 -999 -999 -999
2007-05-09 12:17:21 51°11.49 2°37.584 -999 -999 -999 -999 -999
2007-05-09 12:17:26 51°11.478 2°37.56 -999 -999 -999 -999 -999
2007-05-09 12:17:31 51°11.464 2°37.537 -999 -999 -999 -999 -999
2007-05-09 12:17:37 51°11.448 2°37.509 -999 -999 -999 -999 -999
2007-05-09 12:17:41 51°11.438 2°37.49 -999 -999 -999 -999 -999
2007-05-09 12:17:46 51°11.424 2°37.467 -999 -999 -999 -999 -999
2007-05-09 12:17:51 51°11.411 2°37.443 -999 -999 -999 -999 -999
2007-05-09 12:17:57 51°11.395 2°37.415 -999 -999 -999 -999 -999
2007-05-09 12:18:01 51°11.385 2°37.396 -999 -999 -999 -999 -999
2007-05-09 12:18:06 51°11.372 2°37.373 -999 -999 -999 -999 -999
2007-05-09 12:18:11 51°11.359 2°37.349 -999 -999 -999 -999 -999
2007-05-09 12:18:16 51°11.345 2°37.326 -999 -999 -999 -999 -999
2007-05-09 12:18:21 51°11.332 2°37.303 -999 -999 -999 -999 -999
2007-05-09 12:18:26 51°11.319 2°37.279 -999 -999 -999 -999 -999
2007-05-09 12:18:31 51°11.305 2°37.258 -999 -999 -999 -999 -999
2007-05-09 12:18:36 51°11.291 2°37.236 -999 -999 -999 -999 -999
2007-05-09 12:18:42 51°11.273 2°37.211 -999 -999 -999 -999 -999
2007-05-09 12:18:46 51°11.261 2°37.194 -999 -999 -999 -999 -999
2007-05-09 12:18:51 51°11.246 2°37.175 -999 -999 -999 -999 -999
2007-05-09 12:18:56 51°11.231 2°37.156 -999 -999 -999 -999 -999
2007-05-09 12:19:01 51°11.214 2°37.138 -999 -999 -999 -999 -999
2007-05-09 12:19:06 51°11.198 2°37.119 -999 -999 -999 -999 -999
2007-05-09 12:19:11 51°11.182 2°37.1 -999 -999 -999 -999 -999
2007-05-09 12:19:17 51°11.163 2°37.079 -999 -999 -999 -999 -999
2007-05-09 12:19:21 51°11.15 2°37.065 -999 -999 -999 -999 -999
2007-05-09 12:19:26 51°11.134 2°37.047 -999 -999 -999 -999 -999
2007-05-09 12:19:31 51°11.118 2°37.03 -999 -999 -999 -999 -999
2007-05-09 12:19:37 51°11.098 2°37.009 -999 -999 -999 -999 -999
2007-05-09 12:19:41 51°11.085 2°36.994 -999 -999 -999 -999 -999
2007-05-09 12:19:46 51°11.069 2°36.977 -999 -999 -999 -999 -999
2007-05-09 12:19:51 51°11.053 2°36.959 -999 -999 -999 -999 -999
2007-05-09 12:19:57 51°11.034 2°36.938 -999 -999 -999 -999 -999
2007-05-09 12:20:01 51°11.021 2°36.924 -999 -999 -999 -999 -999
2007-05-09 12:20:06 51°11.005 2°36.906 -999 -999 -999 -999 -999
2007-05-09 12:20:11 51°10.989 2°36.889 -999 -999 -999 -999 -999
2007-05-09 12:20:17 51°10.969 2°36.868 -999 -999 -999 -999 -999
2007-05-09 12:20:21 51°10.956 2°36.854 -999 -999 -999 -999 -999
2007-05-09 12:20:26 51°10.939 2°36.837 -999 -999 -999 -999 -999
2007-05-09 12:20:31 51°10.923 2°36.82 -999 -999 -999 -999 -999
2007-05-09 12:20:36 51°10.907 2°36.804 -999 -999 -999 -999 -999
2007-05-09 12:20:41 51°10.89 2°36.787 -999 -999 -999 -999 -999
2007-05-09 12:20:46 51°10.873 2°36.77 -999 -999 -999 -999 -999
2007-05-09 12:20:51 51°10.857 2°36.753 -999 -999 -999 -999 -999
2007-05-09 12:20:56 51°10.841 2°36.736 -999 -999 -999 -999 -999
2007-05-09 12:21:01 51°10.824 2°36.72 -999 -999 -999 -999 -999
2007-05-09 12:21:06 51°10.807 2°36.703 -999 -999 -999 -999 -999
2007-05-09 12:21:11 51°10.79 2°36.689 -999 -999 -999 -999 -999
2007-05-09 12:21:16 51°10.773 2°36.673 -999 -999 -999 -999 -999
2007-05-09 12:21:21 51°10.756 2°36.659 -999 -999 -999 -999 -999
2007-05-09 12:21:26 51°10.739 2°36.645 -999 -999 -999 -999 -999
2007-05-09 12:21:31 51°10.722 2°36.633 -999 -999 -999 -999 -999
2007-05-09 12:21:37 51°10.701 2°36.617 -999 -999 -999 -999 -999
2007-05-09 12:21:41 51°10.686 2°36.606 -999 -999 -999 -999 -999
2007-05-09 12:21:46 51°10.669 2°36.595 -999 -999 -999 -999 -999
2007-05-09 12:21:51 51°10.65 2°36.585 -999 -999 -999 -999 -999
2007-05-09 12:21:56 51°10.632 2°36.575 -999 -999 -999 -999 -999
2007-05-09 12:22:01 51°10.614 2°36.567 -999 -999 -999 -999 -999
2007-05-09 12:22:06 51°10.596 2°36.559 -999 -999 -999 -999 -999
2007-05-09 12:22:11 51°10.577 2°36.552 -999 -999 -999 -999 -999
2007-05-09 12:22:17 51°10.555 2°36.546 -999 -999 -999 -999 -999
2007-05-09 12:22:21 51°10.54 2°36.542 -999 -999 -999 -999 -999
2007-05-09 12:22:26 51°10.521 2°36.538 -999 -999 -999 -999 -999
2007-05-09 12:22:31 51°10.502 2°36.536 -999 -999 -999 -999 -999
2007-05-09 12:22:37 51°10.479 2°36.532 -999 -999 -999 -999 -999
2007-05-09 12:22:41 51°10.463 2°36.531 -999 -999 -999 -999 -999
2007-05-09 12:22:46 51°10.444 2°36.528 -999 -999 -999 -999 -999
2007-05-09 12:22:51 51°10.425 2°36.528 -999 -999 -999 -999 -999
2007-05-09 12:22:56 51°10.407 2°36.525 -999 -999 -999 -999 -999
2007-05-09 12:23:02 51°10.384 2°36.524 -999 -999 -999 -999 -999
2007-05-09 12:23:06 51°10.368 2°36.522 -999 -999 -999 -999 -999
2007-05-09 12:23:11 51°10.349 2°36.521 -999 -999 -999 -999 -999
2007-05-09 12:23:16 51°10.329 2°36.519 -999 -999 -999 -999 -999
2007-05-09 12:23:21 51°10.309 2°36.518 -999 -999 -999 -999 -999
2007-05-09 12:23:26 51°10.289 2°36.515 -999 -999 -999 -999 -999
2007-05-09 12:23:31 51°10.27 2°36.513 -999 -999 -999 -999 -999
2007-05-09 12:23:37 51°10.247 2°36.511 -999 -999 -999 -999 -999
2007-05-09 12:23:41 51°10.231 2°36.51 -999 -999 -999 -999 -999
2007-05-09 12:23:46 51°10.212 2°36.509 -999 -999 -999 -999 -999
2007-05-09 12:23:51 51°10.192 2°36.509 -999 -999 -999 -999 -999
2007-05-09 12:23:56 51°10.173 2°36.508 -999 -999 -999 -999 -999
2007-05-09 12:24:01 51°10.154 2°36.509 -999 -999 -999 -999 -999
2007-05-09 12:24:06 51°10.135 2°36.509 -999 -999 -999 -999 -999
2007-05-09 12:24:11 51°10.116 2°36.509 -999 -999 -999 -999 -999
2007-05-09 12:24:17 51°10.093 2°36.509 -999 -999 -999 -999 -999
2007-05-09 12:24:21 51°10.078 2°36.509 -999 -999 -999 -999 -999
2007-05-09 12:24:26 51°10.059 2°36.508 -999 -999 -999 -999 -999
2007-05-09 12:24:31 51°10.04 2°36.509 -999 -999 -999 -999 -999
2007-05-09 12:24:37 51°10.017 2°36.507 -999 -999 -999 -999 -999
2007-05-09 12:24:41 51°10.002 2°36.507 -999 -999 -999 -999 -999
2007-05-09 12:24:46 51°9.983 2°36.507 -999 -999 -999 -999 -999
2007-05-09 12:24:51 51°9.964 2°36.507 -999 -999 -999 -999 -999
2007-05-09 12:24:56 51°9.945 2°36.506 -999 -999 -999 -999 -999
2007-05-09 12:25:02 51°9.922 2°36.507 -999 -999 -999 -999 -999
2007-05-09 12:25:06 51°9.907 2°36.508 -999 -999 -999 -999 -999
2007-05-09 12:25:11 51°9.888 2°36.509 -999 -999 -999 -999 -999
2007-05-09 12:25:16 51°9.87 2°36.511 -999 -999 -999 -999 -999
2007-05-09 12:25:22 51°9.847 2°36.513 -999 -999 -999 -999 -999
2007-05-09 12:25:26 51°9.832 2°36.515 -999 -999 -999 -999 -999
2007-05-09 12:25:31 51°9.813 2°36.517 -999 -999 -999 -999 -999
2007-05-09 12:25:36 51°9.794 2°36.519 -999 -999 -999 -999 -999
2007-05-09 12:25:41 51°9.775 2°36.521 -999 -999 -999 -999 -999
2007-05-09 12:25:46 51°9.756 2°36.522 -999 -999 -999 -999 -999
2007-05-09 12:25:51 51°9.738 2°36.524 -999 -999 -999 -999 -999
2007-05-09 12:25:56 51°9.719 2°36.526 -999 -999 -999 -999 -999
2007-05-09 12:26:01 51°9.7 2°36.528 -999 -999 -999 -999 -999
2007-05-09 12:26:06 51°9.681 2°36.53 -999 -999 -999 -999 -999
2007-05-09 12:26:11 51°9.662 2°36.531 -999 -999 -999 -999 -999
2007-05-09 12:26:16 51°9.644 2°36.533 -999 -999 -999 -999 -999
2007-05-09 12:26:21 51°9.625 2°36.535 -999 -999 -999 -999 -999
2007-05-09 12:26:26 51°9.606 2°36.536 -999 -999 -999 -999 -999
2007-05-09 12:26:31 51°9.587 2°36.538 -999 -999 -999 -999 -999
2007-05-09 12:26:37 51°9.564 2°36.54 -999 -999 -999 -999 -999
2007-05-09 12:26:41 51°9.549 2°36.542 -999 -999 -999 -999 -999
2007-05-09 12:26:46 51°9.531 2°36.543 -999 -999 -999 -999 -999
2007-05-09 12:26:51 51°9.512 2°36.545 -999 -999 -999 -999 -999
2007-05-09 12:26:57 51°9.489 2°36.547 -999 -999 -999 -999 -999
2007-05-09 12:27:01 51°9.473 2°36.548 -999 -999 -999 -999 -999
2007-05-09 12:27:06 51°9.455 2°36.55 -999 -999 -999 -999 -999
2007-05-09 12:27:11 51°9.436 2°36.551 -999 -999 -999 -999 -999
2007-05-09 12:27:17 51°9.413 2°36.554 -999 -999 -999 -999 -999
2007-05-09 12:27:22 51°9.394 2°36.555 -999 -999 -999 -999 -999
2007-05-09 12:27:26 51°9.379 2°36.556 -999 -999 -999 -999 -999
2007-05-09 12:27:31 51°9.36 2°36.558 -999 -999 -999 -999 -999
2007-05-09 12:27:36 51°9.341 2°36.559 -999 -999 -999 -999 -999
2007-05-09 12:27:41 51°9.322 2°36.56 -999 -999 -999 -999 -999
2007-05-09 12:27:46 51°9.303 2°36.562 -999 -999 -999 -999 -999
2007-05-09 12:27:51 51°9.284 2°36.564 -999 -999 -999 -999 -999
2007-05-09 12:27:56 51°9.266 2°36.569 -999 -999 -999 -999 -999
2007-05-09 12:28:01 51°9.248 2°36.573 -999 -999 -999 -999 -999
2007-05-09 12:28:06 51°9.231 2°36.579 -999 -999 -999 -999 -999
2007-05-09 12:28:11 51°9.216 2°36.585 -999 -999 -999 -999 -999
2007-05-09 12:28:16 51°9.201 2°36.591 -999 -999 -999 -999 -999
2007-05-09 12:28:21 51°9.187 2°36.597 -999 -999 -999 -999 -999
2007-05-09 12:28:27 51°9.17 2°36.605 -999 -999 -999 -999 -999
2007-05-09 12:28:31 51°9.16 2°36.611 -999 -999 -999 -999 -999
2007-05-09 12:28:37 51°9.147 2°36.62 -999 -999 -999 -999 -999
2007-05-09 12:28:41 51°9.138 2°36.626 -999 -999 -999 -999 -999
2007-05-09 12:28:46 51°9.129 2°36.634 -999 -999 -999 -999 -999
2007-05-09 12:28:51 51°9.122 2°36.642 -999 -999 -999 -999 -999
2007-05-09 12:28:57 51°9.113 2°36.652 -999 -999 -999 -999 -999
2007-05-09 12:29:01 51°9.108 2°36.658 -999 -999 -999 -999 -999
2007-05-09 12:29:06 51°9.103 2°36.666 -999 -999 -999 -999 -999
2007-05-09 12:29:11 51°9.098 2°36.675 -999 -999 -999 -999 -999
2007-05-09 12:29:17 51°9.093 2°36.684 -999 -999 -999 -999 -999
2007-05-09 12:29:22 51°9.089 2°36.693 -999 -999 -999 -999 -999
2007-05-09 12:29:26 51°9.087 2°36.699 -999 -999 -999 -999 -999
2007-05-09 12:29:31 51°9.086 2°36.707 -999 -999 -999 -999 -999
2007-05-09 12:29:36 51°9.085 2°36.715 -999 -999 -999 -999 -999
2007-05-09 12:29:41 51°9.084 2°36.723 -999 -999 -999 -999 -999
2007-05-09 12:29:46 51°9.084 2°36.731 -999 -999 -999 -999 -999
2007-05-09 12:29:51 51°9.085 2°36.739 -999 -999 -999 -999 -999
2007-05-09 12:29:56 51°9.086 2°36.747 -999 -999 -999 -999 -999
2007-05-09 12:30:01 51°9.087 2°36.754 -999 -999 -999 -999 -999
2007-05-09 12:30:06 51°9.09 2°36.762 -999 -999 -999 -999 -999
2007-05-09 12:30:11 51°9.093 2°36.771 -999 -999 -999 -999 -999
2007-05-09 12:30:16 51°9.096 2°36.78 -999 -999 -999 -999 -999
2007-05-09 12:30:21 51°9.099 2°36.789 -999 -999 -999 -999 -999
2007-05-09 12:30:26 51°9.102 2°36.799 -999 -999 -999 -999 -999
2007-05-09 12:30:31 51°9.104 2°36.809 -999 -999 -999 -999 -999
2007-05-09 12:30:36 51°9.106 2°36.82 -999 -999 -999 -999 -999
2007-05-09 12:30:41 51°9.109 2°36.831 -999 -999 -999 -999 -999
2007-05-09 12:30:46 51°9.111 2°36.843 -999 -999 -999 -999 -999
2007-05-09 12:30:51 51°9.113 2°36.854 -999 -999 -999 -999 -999
2007-05-09 12:30:57 51°9.116 2°36.869 -999 -999 -999 -999 -999
2007-05-09 12:31:01 51°9.117 2°36.879 -999 -999 -999 -999 -999
2007-05-09 12:31:06 51°9.119 2°36.891 -999 -999 -999 -999 -999
2007-05-09 12:31:11 51°9.121 2°36.904 -999 -999 -999 -999 -999
2007-05-09 12:31:17 51°9.122 2°36.92 -999 -999 -999 -999 -999
2007-05-09 12:31:21 51°9.124 2°36.93 -999 -999 -999 -999 -999
2007-05-09 12:31:26 51°9.125 2°36.943 -999 -999 -999 -999 -999
2007-05-09 12:31:31 51°9.127 2°36.956 -999 -999 -999 -999 -999
2007-05-09 12:31:37 51°9.129 2°36.972 -999 -999 -999 -999 -999
2007-05-09 12:31:41 51°9.131 2°36.983 -999 -999 -999 -999 -999
2007-05-09 12:31:46 51°9.132 2°36.997 -999 -999 -999 -999 -999
2007-05-09 12:31:51 51°9.135 2°37.01 -999 -999 -999 -999 -999
2007-05-09 12:31:56 51°9.136 2°37.023 -999 -999 -999 -999 -999
2007-05-09 12:32:01 51°9.138 2°37.035 -999 -999 -999 -999 -999
2007-05-09 12:32:06 51°9.14 2°37.048 -999 -999 -999 -999 -999
2007-05-09 12:32:11 51°9.142 2°37.059 -999 -999 -999 -999 -999
2007-05-09 12:32:16 51°9.143 2°37.071 -999 -999 -999 -999 -999
2007-05-09 12:32:22 51°9.145 2°37.084 -999 -999 -999 -999 -999
2007-05-09 12:32:26 51°9.146 2°37.092 -999 -999 -999 -999 -999
2007-05-09 12:32:31 51°9.147 2°37.103 -999 -999 -999 -999 -999
2007-05-09 12:32:36 51°9.148 2°37.114 -999 -999 -999 -999 -999
2007-05-09 12:32:41 51°9.149 2°37.124 -999 -999 -999 -999 -999
2007-05-09 12:32:47 51°9.15 2°37.135 -999 -999 -999 -999 -999
2007-05-09 12:32:51 51°9.15 2°37.142 -999 -999 -999 -999 -999
2007-05-09 12:32:57 51°9.151 2°37.152 -999 -999 -999 -999 -999
2007-05-09 12:33:01 51°9.151 2°37.158 -999 -999 -999 -999 -999
2007-05-09 12:33:06 51°9.151 2°37.165 -999 -999 -999 -999 -999
2007-05-09 12:33:11 51°9.151 2°37.17 -999 -999 -999 -999 -999
2007-05-09 12:33:17 51°9.151 2°37.175 -999 -999 -999 -999 -999
2007-05-09 12:33:21 51°9.151 2°37.178 -999 -999 -999 -999 -999
2007-05-09 12:33:26 51°9.151 2°37.18 -999 -999 -999 -999 -999
2007-05-09 12:33:31 51°9.151 2°37.181 -999 -999 -999 -999 -999
2007-05-09 12:33:37 51°9.15 2°37.182 -999 -999 -999 -999 -999
2007-05-09 12:33:41 51°9.15 2°37.183 -999 -999 -999 -999 -999
2007-05-09 12:33:46 51°9.15 2°37.184 -999 -999 -999 -999 -999
2007-05-09 12:33:51 51°9.149 2°37.185 -999 -999 -999 -999 -999
2007-05-09 12:33:57 51°9.149 2°37.186 -999 -999 -999 -999 -999
2007-05-09 12:34:01 51°9.149 2°37.186 -999 -999 -999 -999 -999
2007-05-09 12:34:06 51°9.148 2°37.187 -999 -999 -999 -999 -999
2007-05-09 12:34:11 51°9.148 2°37.188 -999 -999 -999 -999 -999
2007-05-09 12:34:17 51°9.147 2°37.189 -999 -999 -999 -999 -999
2007-05-09 12:34:21 51°9.146 2°37.19 -999 -999 -999 -999 -999
2007-05-09 12:34:26 51°9.146 2°37.19 -999 -999 -999 -999 -999
2007-05-09 12:34:31 51°9.146 2°37.191 -999 -999 -999 -999 -999
2007-05-09 12:34:36 51°9.145 2°37.192 -999 -999 -999 -999 -999
2007-05-09 12:34:42 51°9.145 2°37.194 -999 -999 -999 -999 -999
2007-05-09 12:34:46 51°9.145 2°37.194 -999 -999 -999 -999 -999
2007-05-09 12:34:51 51°9.145 2°37.196 -999 -999 -999 -999 -999
2007-05-09 12:34:56 51°9.145 2°37.197 -999 -999 -999 -999 -999
2007-05-09 12:35:01 51°9.144 2°37.197 -999 -999 -999 -999 -999
2007-05-09 12:35:06 51°9.144 2°37.199 -999 -999 -999 -999 -999
2007-05-09 12:35:11 51°9.144 2°37.199 -999 -999 -999 -999 -999
2007-05-09 12:35:17 51°9.144 2°37.201 -999 -999 -999 -999 -999
2007-05-09 12:35:21 51°9.144 2°37.202 -999 -999 -999 -999 -999
2007-05-09 12:35:26 51°9.144 2°37.202 -999 -999 -999 -999 -999
2007-05-09 12:35:31 51°9.143 2°37.203 -999 -999 -999 -999 -999
2007-05-09 12:35:37 51°9.143 2°37.204 -999 -999 -999 -999 -999
2007-05-09 12:35:41 51°9.143 2°37.205 -999 -999 -999 -999 -999
2007-05-09 12:35:46 51°9.143 2°37.206 -999 -999 -999 -999 -999
2007-05-09 12:35:51 51°9.143 2°37.207 -999 -999 -999 -999 -999
2007-05-09 12:35:57 51°9.143 2°37.208 -999 -999 -999 -999 -999
2007-05-09 12:36:01 51°9.143 2°37.208 -999 -999 -999 -999 -999
2007-05-09 12:36:06 51°9.142 2°37.209 -999 -999 -999 -999 -999
2007-05-09 12:36:11 51°9.141 2°37.209 -999 -999 -999 -999 -999
2007-05-09 12:36:17 51°9.141 2°37.21 -999 -999 -999 -999 -999
2007-05-09 12:36:21 51°9.141 2°37.21 -999 -999 -999 -999 -999
2007-05-09 12:36:26 51°9.141 2°37.211 -999 -999 -999 -999 -999
2007-05-09 12:36:31 51°9.141 2°37.212 -999 -999 -999 -999 -999
2007-05-09 12:36:36 51°9.141 2°37.212 -999 -999 -999 -999 -999
2007-05-09 12:36:42 51°9.141 2°37.213 -999 -999 -999 -999 -999
2007-05-09 12:36:46 51°9.14 2°37.214 -999 -999 -999 -999 -999
2007-05-09 12:36:51 51°9.14 2°37.214 -999 -999 -999 -999 -999
2007-05-09 12:36:56 51°9.14 2°37.215 -999 -999 -999 -999 -999
2007-05-09 12:37:02 51°9.139 2°37.215 -999 -999 -999 -999 -999
2007-05-09 12:37:06 51°9.139 2°37.216 -999 -999 -999 -999 -999
2007-05-09 12:37:11 51°9.139 2°37.216 -999 -999 -999 -999 -999
2007-05-09 12:37:17 51°9.139 2°37.217 -999 -999 -999 -999 -999
2007-05-09 12:37:21 51°9.139 2°37.217 -999 -999 -999 -999 -999
2007-05-09 12:37:26 51°9.139 2°37.217 -999 -999 -999 -999 -999